Dati Storici

Data ora Umidita' aria (%) Temperatura aria (°C) Rad globale (W/m²) Gonioanemometro (°) Tacoanemometro (m/s) Pioggia (mm)
27-06-2020 03:30 94.1 % 21.4 70.831 -0.017 0 0
27-06-2020 03:20 95.2 % 21.392 37.287 -0.023 0 0
27-06-2020 03:10 95.2 % 21.282 46.674 -0.02 0 0
27-06-2020 03:00 94.4 % 21.224 37.385 -0.009 0 0
27-06-2020 02:50 93.4 % 21.282 65.883 -0.009 0 0
27-06-2020 02:40 93.7 % 21.452 38.326 0.758 0 0
27-06-2020 02:30 93.3 % 21.485 16.856 -0.009 0 0
27-06-2020 02:20 92.5 % 21.606 20.371 -0.008 0 0
27-06-2020 02:10 91.3 % 21.787 29.533 0.301 0 0
27-06-2020 02:00 90.7 % 21.95 52.374 -0.011 0 0
27-06-2020 01:50 89.9 % 22.089 35 -0.012 0 0
27-06-2020 01:40 90.7 % 22.175 6.262 -0.012 0 0
27-06-2020 01:30 90.1 % 21.969 281.789 -0.011 0 0
27-06-2020 01:20 88.8 % 22.162 34.393 -0.01 0 0
27-06-2020 01:10 88.1 % 22.359 27.369 -0.012 0 0
27-06-2020 01:00 88.1 % 22.521 298.473 0.301 0 0
27-06-2020 00:50 88.3 % 22.416 296.102 -0.015 0 0
27-06-2020 00:40 88.5 % 22.356 352.925 -0.015 0 0
27-06-2020 00:30 88.5 % 22.534 26.307 -0.017 0 0
27-06-2020 00:20 88.1 % 22.899 28.126 -0.019 0 0

I dati sono presentati in modo automatico a scopo informativo. In seguito a verifica i dati possono subire modifiche o essere invalidati e non riportati negli archivi definitivi.